Location: Friaudour
(46.0460°N, 1.2873°E)
Time: 10:52:15
(UTC+00:00)

BREEZE-M DEB (TANK) - Pass Details

Date: 14 July 2020
Orbit: 274 x 20503 km, 49.2° (Epoch: 05 August)

Event Time Altitude Azimuth Distance (km) Brightness Sun altitude
Exits shadow 01:56:28 15° 283° (WNW) 1,227 4.4 -17.4°
Maximum altitude 01:58:39 65° 202° (SSW) 669 2.9 -17.2°
Drops below altitude 10° 02:06:22 10° 123° (ESE) 4,135 7.2 -16.6°
Sets 02:13:13 0° 122° (ESE) 7,177 8.5 -16.0°
